,,,PA_Meas_PMT16A,,PR_Meas_QMR101_102,,RH_Meas_QMH101,,SR_Meas_QMS101,,TA_Meas_QMH101,,GenWind,,GenWind,
date,time,status,PA,status,PR,status,RH,status,SR,status,TA,status,DirAvg,status,SpdAvg,
2009-01-26, 00:00:05,VALID,1010.3,VALID,0,VALID,91.8827,VALID,0,VALID,22.5852,VALID,334,VALID,0,
2009-01-26, 00:01:05,VALID,1010.31,VALID,0,VALID,91.8903,VALID,0,VALID,22.5835,VALID,334,VALID,0,
2009-01-26, 00:02:05,VALID,1010.28,VALID,0,VALID,91.898,VALID,0,VALID,22.564,VALID,334,VALID,0,
2009-01-26, 00:03:05,VALID,1010.28,VALID,0,VALID,91.8751,VALID,0,VALID,22.564,VALID,334,VALID,0,
2009-01-26, 00:04:05,VALID,1010.28,VALID,0,VALID,91.8827,VALID,0,VALID,22.564,VALID,334,VALID,0.175,
2009-01-26, 00:05:05,VALID,1010.25,VALID,0,VALID,91.9132,VALID,0,VALID,22.5835,VALID,334,VALID,0,
2009-01-26, 00:06:05,VALID,1010.26,VALID,0,VALID,91.9285,VALID,0,VALID,22.6225,VALID,309,VALID,0.16875,
2009-01-26, 00:07:05,VALID,1010.24,VALID,0,VALID,91.8827,VALID,0,VALID,22.6225,VALID,309,VALID,0.26875,
2009-01-26, 00:08:05,VALID,1010.24,VALID,0,VALID,91.9208,VALID,0,VALID,22.6225,VALID,309,VALID,0.117969,
2009-01-26, 00:09:05,VALID,1010.29,VALID,0,VALID,91.898,VALID,0,VALID,22.603,VALID,309,VALID,0.0816406,
2009-01-26, 00:10:05,VALID,1010.28,VALID,0,VALID,91.9056,VALID,0,VALID,22.5835,VALID,309,VALID,0,
2009-01-26, 00:11:05,VALID,1010.3,VALID,0,VALID,91.8675,VALID,0.105969,VALID,22.5623,VALID,309,VALID,0,
2009-01-26, 00:12:05,VALID,1010.3,VALID,0,VALID,91.8598,VALID,0,VALID,22.5234,VALID,309,VALID,0,
2009-01-26, 00:13:05,VALID,1010.31,VALID,0,VALID,91.8522,VALID,0,VALID,22.4844,VALID,309,VALID,0,
2009-01-26, 00:14:05,VALID,1010.29,VALID,0,VALID,91.8446,VALID,0.105969,VALID,22.4844,VALID,309,VALID,0,
2009-01-26, 00:15:05,VALID,1010.27,VALID,0,VALID,91.8827,VALID,0.105969,VALID,22.5234,VALID,309,VALID,0,
2009-01-26, 00:16:05,VALID,1010.28,VALID,0,VALID,91.8827,VALID,0,VALID,22.5234,VALID,309,VALID,0,
2009-01-26, 00:17:05,VALID,1010.28,VALID,0,VALID,91.8827,VALID,0,VALID,22.5234,VALID,309,VALID,0,
2009-01-26, 00:18:05,VALID,1010.29,VALID,0,VALID,91.8751,VALID,0.105969,VALID,22.5039,VALID,309,VALID,0,
2009-01-26, 00:19:05,VALID,1010.29,VALID,0,VALID,91.8827,VALID,0.105969,VALID,22.5039,VALID,309,VALID,0,
2009-01-26, 00:20:04,VALID,1010.27,VALID,0,VALID,91.8217,VALID,0.105969,VALID,22.4844,VALID,309,VALID,0,
2009-01-26, 00:21:04,VALID,1010.25,VALID,0,VALID,91.8751,VALID,0.105969,VALID,22.4455,VALID,309,VALID,0,
2009-01-26, 00:22:04,VALID,1010.23,VALID,0,VALID,91.8446,VALID,0.105969,VALID,22.426,VALID,309,VALID,0,
2009-01-26, 00:23:04,VALID,1010.24,VALID,0,VALID,91.8293,VALID,0,VALID,22.387,VALID,309,VALID,0,
2009-01-26, 00:24:04,VALID,1010.23,VALID,0,VALID,91.837,VALID,0,VALID,22.3676,VALID,309,VALID,0,
2009-01-26, 00:25:04,VALID,1010.24,VALID,0,VALID,91.8598,VALID,0.105969,VALID,22.3676,VALID,309,VALID,0,
2009-01-26, 00:26:04,VALID,1010.22,VALID,0,VALID,91.8827,VALID,0,VALID,22.3693,VALID,309,VALID,0,
2009-01-26, 00:27:04,VALID,1010.25,VALID,0,VALID,91.8827,VALID,0,VALID,22.3887,VALID,309,VALID,0,
2009-01-26, 00:28:04,VALID,1010.26,VALID,0,VALID,91.8827,VALID,0,VALID,22.3887,VALID,309,VALID,0,
2009-01-26, 00:29:04,VALID,1010.26,VALID,0,VALID,91.8446,VALID,0,VALID,22.3887,VALID,309,VALID,0,
2009-01-26, 00:30:04,VALID,1010.23,VALID,0,VALID,91.8598,VALID,0,VALID,22.3904,VALID,309,VALID,0,
2009-01-26, 00:31:04,VALID,1010.27,VALID,0,VALID,91.8675,VALID,0,VALID,22.3693,VALID,309,VALID,0,
2009-01-26, 00:32:04,VALID,1010.25,VALID,0,VALID,91.9056,VALID,0,VALID,22.3693,VALID,309,VALID,0,
2009-01-26, 00:33:04,VALID,1010.23,VALID,0,VALID,91.8903,VALID,0,VALID,22.3303,VALID,309,VALID,0,
2009-01-26, 00:34:04,VALID,1010.24,VALID,0,VALID,91.8827,VALID,0,VALID,22.3303,VALID,309,VALID,0,
2009-01-26, 00:35:04,VALID,1010.23,VALID,0,VALID,91.8827,VALID,0,VALID,22.3108,VALID,309,VALID,0,
2009-01-26, 00:36:04,VALID,1010.19,VALID,0,VALID,91.8827,VALID,0,VALID,22.3108,VALID,309,VALID,0,
2009-01-26, 00:37:04,VALID,1010.21,VALID,0,VALID,91.8827,VALID,0,VALID,22.332,VALID,309,VALID,0,
2009-01-26, 00:38:04,VALID,1010.2,VALID,0,VALID,91.9056,VALID,0,VALID,22.2914,VALID,309,VALID,0,
2009-01-26, 00:39:04,VALID,1010.19,VALID,0,VALID,91.8827,VALID,0,VALID,22.2914,VALID,309,VALID,0,
2009-01-26, 00:40:04,VALID,1010.19,VALID,0,VALID,91.9056,VALID,0,VALID,22.2914,VALID,309,VALID,0,
2009-01-26, 00:41:04,VALID,1010.16,VALID,0,VALID,91.9208,VALID,0,VALID,22.2897,VALID,309,VALID,0,
2009-01-26, 00:42:04,VALID,1010.15,VALID,0,VALID,91.9132,VALID,0,VALID,22.2897,VALID,309,VALID,0,
2009-01-26, 00:43:04,VALID,1010.18,VALID,0,VALID,91.9208,VALID,0.105969,VALID,22.2897,VALID,309,VALID,0,
2009-01-26, 00:44:04,VALID,1010.16,VALID,0,VALID,91.8903,VALID,0,VALID,22.2914,VALID,309,VALID,0,
2009-01-26, 00:45:04,VALID,1010.17,VALID,0,VALID,91.9056,VALID,0.105969,VALID,22.2702,VALID,309,VALID,0,
2009-01-26, 00:46:04,VALID,1010.15,VALID,0,VALID,91.8827,VALID,0.105969,VALID,22.2702,VALID,309,VALID,0,
2009-01-26, 00:47:04,VALID,1010.18,VALID,0,VALID,91.9056,VALID,0,VALID,22.2296,VALID,309,VALID,0,
2009-01-26, 00:48:04,VALID,1010.15,VALID,0,VALID,91.9132,VALID,0,VALID,22.2524,VALID,309,VALID,0,
2009-01-26, 00:49:04,VALID,1010.17,VALID,0,VALID,91.9285,VALID,0.105969,VALID,22.2312,VALID,309,VALID,0,
2009-01-26, 00:50:04,VALID,1010.17,VALID,0,VALID,91.9437,VALID,0,VALID,22.2118,VALID,309,VALID,0,
2009-01-26, 00:51:04,VALID,1010.18,VALID,0,VALID,91.9513,VALID,0,VALID,22.2312,VALID,309,VALID,0,
2009-01-26, 00:52:04,VALID,1010.18,VALID,0,VALID,91.9742,VALID,0,VALID,22.2312,VALID,309,VALID,0,
2009-01-26, 00:53:04,VALID,1010.2,VALID,0,VALID,91.9818,VALID,0.105969,VALID,22.2118,VALID,309,VALID,0,
2009-01-26, 00:54:04,VALID,1010.2,VALID,0,VALID,91.9818,VALID,0,VALID,22.2118,VALID,309,VALID,0,
2009-01-26, 00:55:04,VALID,1010.19,VALID,0,VALID,91.9818,VALID,0.105969,VALID,22.1906,VALID,309,VALID,0,
2009-01-26, 00:56:04,VALID,1010.21,VALID,0,VALID,91.9971,VALID,0,VALID,22.2151,VALID,309,VALID,0,
2009-01-26, 00:57:04,VALID,1010.2,VALID,0,VALID,92.0123,VALID,0,VALID,22.2134,VALID,309,VALID,0,
2009-01-26, 00:58:04,VALID,1010.19,VALID,0,VALID,92.0047,VALID,0,VALID,22.2151,VALID,309,VALID,0,
2009-01-26, 00:59:04,VALID,1010.18,VALID,0,VALID,92.0123,VALID,0,VALID,22.2134,VALID,309,VALID,0,
2009-01-26, 01:00:04,VALID,1010.17,VALID,0,VALID,92.0123,VALID,0,VALID,22.194,VALID,309,VALID,0,
2009-01-26, 01:01:04,VALID,1010.18,VALID,0,VALID,92.0047,VALID,0,VALID,22.194,VALID,309,VALID,0,
2009-01-26, 01:02:04,VALID,1010.2,VALID,0,VALID,92.0428,VALID,0,VALID,22.194,VALID,309,VALID,0,
2009-01-26, 01:03:04,VALID,1010.18,VALID,0,VALID,92.0123,VALID,0,VALID,22.1745,VALID,309,VALID,0,
2009-01-26, 01:04:04,VALID,1010.2,VALID,0,VALID,92.0123,VALID,0,VALID,22.1745,VALID,309,VALID,0,
2009-01-26, 01:05:04,VALID,1010.19,VALID,0,VALID,92.02,VALID,0,VALID,22.2151,VALID,309,VALID,0,
2009-01-26, 01:06:04,VALID,1010.17,VALID,0,VALID,92.0428,VALID,0,VALID,22.1745,VALID,309,VALID,0,
2009-01-26, 01:07:04,VALID,1010.16,VALID,0,VALID,92.0657,VALID,0,VALID,22.1745,VALID,309,VALID,0,
2009-01-26, 01:08:04,VALID,1010.15,VALID,0,VALID,92.0886,VALID,0,VALID,22.155,VALID,309,VALID,0,
2009-01-26, 01:09:04,VALID,1010.19,VALID,0,VALID,92.081,VALID,0,VALID,22.1745,VALID,309,VALID,0,
2009-01-26, 01:10:04,VALID,1010.17,VALID,0,VALID,92.0962,VALID,0,VALID,22.155,VALID,309,VALID,0,
2009-01-26, 01:11:04,VALID,1010.16,VALID,0,VALID,92.1039,VALID,0,VALID,22.1745,VALID,309,VALID,0,
2009-01-26, 01:12:04,VALID,1010.14,VALID,0,VALID,92.0962,VALID,0,VALID,22.155,VALID,309,VALID,0,
2009-01-26, 01:13:04,VALID,1010.15,VALID,0,VALID,92.0962,VALID,0,VALID,22.194,VALID,309,VALID,0,
2009-01-26, 01:14:04,VALID,1010.13,VALID,0,VALID,92.0962,VALID,0,VALID,22.194,VALID,309,VALID,0,
2009-01-26, 01:15:04,VALID,1010.12,VALID,0,VALID,92.1039,VALID,0,VALID,22.2134,VALID,309,VALID,0,
2009-01-26, 01:16:04,VALID,1010.11,VALID,0,VALID,92.1115,VALID,0,VALID,22.2329,VALID,309,VALID,0,
2009-01-26, 01:17:04,VALID,1010.08,VALID,0,VALID,92.0886,VALID,0,VALID,22.2524,VALID,309,VALID,0,
2009-01-26, 01:18:04,VALID,1010.11,VALID,0,VALID,92.1039,VALID,0,VALID,22.2719,VALID,309,VALID,0,
2009-01-26, 01:19:04,VALID,1010.09,VALID,0,VALID,92.1191,VALID,0,VALID,22.2719,VALID,309,VALID,0,
2009-01-26, 01:20:04,VALID,1010.09,VALID,0,VALID,92.0962,VALID,0,VALID,22.2719,VALID,309,VALID,0,
2009-01-26, 01:21:04,VALID,1010.08,VALID,0,VALID,92.1344,VALID,0,VALID,22.2719,VALID,309,VALID,0,
2009-01-26, 01:22:04,VALID,1010.1,VALID,0,VALID,92.1344,VALID,0,VALID,22.2914,VALID,309,VALID,0,
2009-01-26, 01:23:04,VALID,1010.09,VALID,0,VALID,92.1572,VALID,0,VALID,22.2736,VALID,309,VALID,0,
2009-01-26, 01:24:04,VALID,1010.07,VALID,0,VALID,92.1344,VALID,0,VALID,22.2524,VALID,309,VALID,0,
2009-01-26, 01:25:04,VALID,1010.06,VALID,0,VALID,92.1344,VALID,0,VALID,22.2524,VALID,309,VALID,0,
2009-01-26, 01:26:04,VALID,1010.08,VALID,0,VALID,92.1191,VALID,0,VALID,22.2524,VALID,309,VALID,0,
2009-01-26, 01:27:04,VALID,1010.08,VALID,0,VALID,92.1191,VALID,0,VALID,22.2719,VALID,309,VALID,0,
2009-01-26, 01:28:04,VALID,1010.06,VALID,0,VALID,92.1191,VALID,0,VALID,22.2507,VALID,309,VALID,0,
2009-01-26, 01:29:04,VALID,1010.05,VALID,0,VALID,92.1267,VALID,0,VALID,22.2914,VALID,309,VALID,0,
2009-01-26, 01:30:04,VALID,1010.08,VALID,0,VALID,92.1496,VALID,0,VALID,22.2914,VALID,309,VALID,0,
2009-01-26, 01:31:04,VALID,1010.07,VALID,0,VALID,92.1496,VALID,0,VALID,22.3108,VALID,309,VALID,0,
2009-01-26, 01:32:04,VALID,1010.06,VALID,0,VALID,92.1191,VALID,0,VALID,22.3108,VALID,309,VALID,0,
2009-01-26, 01:33:04,VALID,1010.04,VALID,0,VALID,92.1039,VALID,0,VALID,22.3303,VALID,309,VALID,0,
2009-01-26, 01:34:04,VALID,1010.07,VALID,0,VALID,92.1039,VALID,0,VALID,22.3498,VALID,309,VALID,0,
2009-01-26, 01:35:04,VALID,1010.07,VALID,0,VALID,92.1039,VALID,0,VALID,22.3303,VALID,309,VALID,0,
2009-01-26, 01:36:04,VALID,1010.07,VALID,0,VALID,92.0962,VALID,0,VALID,22.3498,VALID,309,VALID,0,
2009-01-26, 01:37:04,VALID,1010.06,VALID,0,VALID,92.1267,VALID,0,VALID,22.3887,VALID,309,VALID,0,
2009-01-26, 01:38:04,VALID,1010.06,VALID,0,VALID,92.1267,VALID,0,VALID,22.3693,VALID,309,VALID,0,
2009-01-26, 01:39:04,VALID,1010.05,VALID,0,VALID,92.1267,VALID,0,VALID,22.3887,VALID,309,VALID,0,
2009-01-26, 01:40:04,VALID,1010.03,VALID,0,VALID,92.1115,VALID,0,VALID,22.3887,VALID,309,VALID,0,
2009-01-26, 01:41:04,VALID,1010.05,VALID,0,VALID,92.1191,VALID,0,VALID,22.4082,VALID,309,VALID,0,
2009-01-26, 01:42:04,VALID,1010.03,VALID,0,VALID,92.1267,VALID,0,VALID,22.4082,VALID,309,VALID,0,
2009-01-26, 01:43:04,VALID,1010.04,VALID,0,VALID,92.1115,VALID,0,VALID,22.4472,VALID,309,VALID,0,
2009-01-26, 01:44:04,VALID,1010.03,VALID,0,VALID,92.1039,VALID,0,VALID,22.4472,VALID,309,VALID,0,
2009-01-26, 01:45:04,VALID,1010,VALID,0,VALID,92.1115,VALID,0,VALID,22.4472,VALID,309,VALID,0,
2009-01-26, 01:46:04,VALID,1009.98,VALID,0,VALID,92.1115,VALID,0,VALID,22.4277,VALID,309,VALID,0,
2009-01-26, 01:47:04,VALID,1009.97,VALID,0,VALID,92.1115,VALID,0,VALID,22.426,VALID,309,VALID,0,
2009-01-26, 01:48:04,VALID,1009.96,VALID,0,VALID,92.0962,VALID,0,VALID,22.4472,VALID,309,VALID,0,
2009-01-26, 01:49:04,VALID,1009.95,VALID,0,VALID,92.081,VALID,0,VALID,22.4065,VALID,309,VALID,0,
2009-01-26, 01:50:04,VALID,1009.92,VALID,0,VALID,92.0886,VALID,0,VALID,22.4472,VALID,309,VALID,0,
2009-01-26, 01:51:04,VALID,1009.93,VALID,0,VALID,92.0581,VALID,0,VALID,22.4065,VALID,309,VALID,0,
2009-01-26, 01:52:04,VALID,1009.91,VALID,0,VALID,92.0428,VALID,0,VALID,22.4277,VALID,309,VALID,0,
2009-01-26, 01:53:04,VALID,1009.9,VALID,0,VALID,92.0276,VALID,0.105969,VALID,22.4277,VALID,309,VALID,0,
2009-01-26, 01:54:04,VALID,1009.9,VALID,0,VALID,92.0276,VALID,0,VALID,22.426,VALID,309,VALID,0,
2009-01-26, 01:55:04,VALID,1009.9,VALID,0,VALID,92.02,VALID,0,VALID,22.4277,VALID,309,VALID,0,
2009-01-26, 01:56:04,VALID,1009.87,VALID,0,VALID,92.0047,VALID,0,VALID,22.4277,VALID,309,VALID,0,
2009-01-26, 01:57:04,VALID,1009.86,VALID,0,VALID,92.0123,VALID,0,VALID,22.4472,VALID,309,VALID,0,
2009-01-26, 01:58:04,VALID,1009.84,VALID,0,VALID,91.9971,VALID,0,VALID,22.426,VALID,309,VALID,0,
2009-01-26, 01:59:04,VALID,1009.82,VALID,0,VALID,91.9666,VALID,0,VALID,22.426,VALID,309,VALID,0,
2009-01-26, 02:00:04,VALID,1009.8,VALID,0,VALID,91.9437,VALID,0,VALID,22.4472,VALID,309,VALID,0,
2009-01-26, 02:01:04,VALID,1009.77,VALID,0,VALID,91.9285,VALID,0,VALID,22.426,VALID,309,VALID,0,
2009-01-26, 02:02:04,VALID,1009.73,VALID,0,VALID,91.9361,VALID,0,VALID,22.4667,VALID,309,VALID,0,
2009-01-26, 02:03:04,VALID,1009.72,VALID,0,VALID,91.9361,VALID,0,VALID,22.4455,VALID,309,VALID,0,
2009-01-26, 02:04:04,VALID,1009.69,VALID,0,VALID,91.9056,VALID,0,VALID,22.465,VALID,309,VALID,0,
2009-01-26, 02:05:04,VALID,1009.66,VALID,0,VALID,91.9208,VALID,0,VALID,22.4667,VALID,309,VALID,0,
2009-01-26, 02:06:04,VALID,1009.59,VALID,0,VALID,91.8827,VALID,0,VALID,22.4667,VALID,309,VALID,0,
2009-01-26, 02:07:04,VALID,1009.58,VALID,0,VALID,91.8827,VALID,0,VALID,22.4455,VALID,309,VALID,0,
2009-01-26, 02:08:04,VALID,1009.56,VALID,0,VALID,91.8751,VALID,0,VALID,22.4861,VALID,309,VALID,0,
2009-01-26, 02:09:04,VALID,1009.53,VALID,0,VALID,91.8675,VALID,0,VALID,22.465,VALID,309,VALID,0,
2009-01-26, 02:10:04,VALID,1009.52,VALID,0,VALID,91.8217,VALID,0,VALID,22.4861,VALID,309,VALID,0,
2009-01-26, 02:11:04,VALID,1009.49,VALID,0,VALID,91.7988,VALID,0,VALID,22.5251,VALID,309,VALID,0,
2009-01-26, 02:12:04,VALID,1009.48,VALID,0,VALID,91.7836,VALID,0,VALID,22.4844,VALID,309,VALID,0,
2009-01-26, 02:13:04,VALID,1009.47,VALID,0,VALID,91.5929,VALID,0,VALID,22.5039,VALID,309,VALID,0,
2009-01-26, 02:14:04,VALID,1009.48,VALID,0,VALID,91.5853,VALID,0,VALID,22.4844,VALID,309,VALID,0,
2009-01-26, 02:15:04,VALID,1009.46,VALID,0,VALID,91.5929,VALID,0,VALID,22.5056,VALID,309,VALID,0,
2009-01-26, 02:16:04,VALID,1009.49,VALID,0,VALID,91.5929,VALID,0.105969,VALID,22.5056,VALID,309,VALID,0,
2009-01-26, 02:17:04,VALID,1009.5,VALID,0,VALID,91.5853,VALID,0,VALID,22.4861,VALID,309,VALID,0,
2009-01-26, 02:18:04,VALID,1009.5,VALID,0,VALID,91.6005,VALID,0,VALID,22.4844,VALID,309,VALID,0,
2009-01-26, 02:19:04,VALID,1009.49,VALID,0,VALID,91.5929,VALID,0,VALID,22.4861,VALID,309,VALID,0,
2009-01-26, 02:20:04,VALID,1009.51,VALID,0,VALID,91.5929,VALID,0,VALID,22.5056,VALID,309,VALID,0,
2009-01-26, 02:21:04,VALID,1009.5,VALID,0,VALID,91.5929,VALID,0,VALID,22.5056,VALID,309,VALID,0,
2009-01-26, 02:22:04,VALID,1009.5,VALID,0,VALID,91.6005,VALID,0,VALID,22.4844,VALID,309,VALID,0,
2009-01-26, 02:23:04,VALID,1009.46,VALID,0,VALID,91.5853,VALID,0,VALID,22.5056,VALID,309,VALID,0,
2009-01-26, 02:24:04,VALID,1009.45,VALID,0,VALID,91.6005,VALID,0,VALID,22.5039,VALID,309,VALID,0,
2009-01-26, 02:25:04,VALID,1009.43,VALID,0,VALID,91.6005,VALID,0,VALID,22.5446,VALID,309,VALID,0,
2009-01-26, 02:26:04,VALID,1009.41,VALID,0,VALID,91.5929,VALID,0,VALID,22.5039,VALID,309,VALID,0,
2009-01-26, 02:27:04,VALID,1009.4,VALID,0,VALID,91.5777,VALID,0,VALID,22.5056,VALID,309,VALID,0,
2009-01-26, 02:28:04,VALID,1009.39,VALID,0,VALID,91.5929,VALID,0,VALID,22.5039,VALID,309,VALID,0,
2009-01-26, 02:29:04,VALID,1009.36,VALID,0,VALID,91.6082,VALID,0,VALID,22.5251,VALID,309,VALID,0,
2009-01-26, 02:30:04,VALID,1009.35,VALID,0,VALID,91.6158,VALID,0,VALID,22.5251,VALID,309,VALID,0,
2009-01-26, 02:31:04,VALID,1009.36,VALID,0,VALID,91.5853,VALID,0,VALID,22.5251,VALID,309,VALID,0,
2009-01-26, 02:32:04,VALID,1009.35,VALID,0,VALID,91.5777,VALID,0,VALID,22.5446,VALID,309,VALID,0,
2009-01-26, 02:33:04,VALID,1009.34,VALID,0,VALID,91.5929,VALID,0,VALID,22.5251,VALID,309,VALID,0,
2009-01-26, 02:34:04,VALID,1009.33,VALID,0,VALID,91.5929,VALID,0,VALID,22.4844,VALID,309,VALID,0,
2009-01-26, 02:35:04,VALID,1009.31,VALID,0,VALID,91.6005,VALID,0,VALID,22.5251,VALID,309,VALID,0,
2009-01-26, 02:36:04,VALID,1009.31,VALID,0,VALID,91.6082,VALID,0,VALID,22.5251,VALID,309,VALID,0,
2009-01-26, 02:37:04,VALID,1009.3,VALID,0,VALID,91.5929,VALID,0,VALID,22.5234,VALID,309,VALID,0,
2009-01-26, 02:38:04,VALID,1009.29,VALID,0,VALID,91.5929,VALID,0,VALID,22.5234,VALID,309,VALID,0,
2009-01-26, 02:39:04,VALID,1009.25,VALID,0,VALID,91.6005,VALID,0,VALID,22.5429,VALID,347,VALID,0,
2009-01-26, 02:40:04,VALID,1009.24,VALID,0,VALID,91.6005,VALID,0,VALID,22.5835,VALID,95,VALID,0,
2009-01-26, 02:41:04,VALID,1009.26,VALID,0,VALID,91.5929,VALID,0,VALID,22.5835,VALID,95,VALID,0,
2009-01-26, 02:42:04,VALID,1009.23,VALID,0,VALID,91.6082,VALID,0,VALID,22.603,VALID,94,VALID,0,
2009-01-26, 02:43:04,VALID,1009.21,VALID,0,VALID,91.6005,VALID,0,VALID,22.5835,VALID,84,VALID,0,
2009-01-26, 02:44:04,VALID,1009.17,VALID,0,VALID,91.5929,VALID,0,VALID,22.603,VALID,83,VALID,0,
2009-01-26, 02:45:04,VALID,1009.18,VALID,0,VALID,91.6005,VALID,0,VALID,22.603,VALID,65,VALID,0,
2009-01-26, 02:46:04,VALID,1009.17,VALID,0,VALID,91.5853,VALID,0,VALID,22.6225,VALID,49,VALID,0,
2009-01-26, 02:47:04,VALID,1009.14,VALID,0,VALID,91.5853,VALID,0,VALID,22.603,VALID,34,VALID,0,
2009-01-26, 02:48:04,VALID,1009.12,VALID,0,VALID,91.5929,VALID,0,VALID,22.5818,VALID,25,VALID,0,
2009-01-26, 02:49:04,VALID,1009.13,VALID,0,VALID,91.5929,VALID,0,VALID,22.603,VALID,25,VALID,0,
2009-01-26, 02:50:04,VALID,1009.09,VALID,0,VALID,91.5853,VALID,0,VALID,22.5835,VALID,25,VALID,0,
2009-01-26, 02:51:04,VALID,1009.12,VALID,0,VALID,91.57,VALID,0,VALID,22.564,VALID,25,VALID,0,
2009-01-26, 02:52:04,VALID,1009.08,VALID,0,VALID,91.5777,VALID,0,VALID,22.5446,VALID,25,VALID,0,
2009-01-26, 02:53:04,VALID,1009.08,VALID,0,VALID,91.5777,VALID,0,VALID,22.564,VALID,25,VALID,0,
2009-01-26, 02:54:04,VALID,1009.08,VALID,0,VALID,91.6005,VALID,0,VALID,22.5835,VALID,25,VALID,0,
2009-01-26, 02:55:04,VALID,1009.08,VALID,0,VALID,91.5853,VALID,0,VALID,22.5835,VALID,25,VALID,0,
2009-01-26, 02:56:04,VALID,1009.1,VALID,0,VALID,91.5853,VALID,0,VALID,22.6242,VALID,25,VALID,0,
2009-01-26, 02:57:04,VALID,1009.09,VALID,0,VALID,91.5777,VALID,0,VALID,22.603,VALID,25,VALID,0,
2009-01-26, 02:58:04,VALID,1009.1,VALID,0,VALID,91.5777,VALID,0,VALID,22.5818,VALID,25,VALID,0,
2009-01-26, 02:59:04,VALID,1009.1,VALID,0,VALID,91.5624,VALID,0,VALID,22.5835,VALID,25,VALID,0,
2009-01-26, 03:00:04,VALID,1009.12,VALID,0,VALID,91.57,VALID,0,VALID,22.564,VALID,25,VALID,0,
2009-01-26, 03:01:04,VALID,1009.13,VALID,0,VALID,91.5624,VALID,0,VALID,22.564,VALID,25,VALID,0,
2009-01-26, 03:02:04,VALID,1009.13,VALID,0,VALID,91.5548,VALID,0,VALID,22.5835,VALID,25,VALID,0,
2009-01-26, 03:03:04,VALID,1009.15,VALID,0,VALID,91.5548,VALID,0,VALID,22.564,VALID,25,VALID,0,
2009-01-26, 03:04:04,VALID,1009.15,VALID,0,VALID,91.5548,VALID,0,VALID,22.603,VALID,25,VALID,0,
2009-01-26, 03:05:04,VALID,1009.14,VALID,0,VALID,91.5472,VALID,0,VALID,22.603,VALID,25,VALID,0,
2009-01-26, 03:06:04,VALID,1009.15,VALID,0,VALID,91.5472,VALID,0,VALID,22.5835,VALID,25,VALID,0,
2009-01-26, 03:07:04,VALID,1009.15,VALID,0,VALID,91.5472,VALID,0,VALID,22.6242,VALID,25,VALID,0,
2009-01-26, 03:08:04,VALID,1009.15,VALID,0,VALID,91.5548,VALID,0,VALID,22.603,VALID,25,VALID,0,
2009-01-26, 03:09:04,VALID,1009.15,VALID,0,VALID,91.5548,VALID,0,VALID,22.603,VALID,25,VALID,0,
2009-01-26, 03:10:04,VALID,1009.19,VALID,0,VALID,91.5472,VALID,0,VALID,22.603,VALID,25,VALID,0,
2009-01-26, 03:11:04,VALID,1009.17,VALID,0,VALID,91.5319,VALID,0,VALID,22.6225,VALID,25,VALID,0,
2009-01-26, 03:12:04,VALID,1009.22,VALID,0,VALID,91.5548,VALID,0,VALID,22.6225,VALID,25,VALID,0,
2009-01-26, 03:13:04,VALID,1009.24,VALID,0,VALID,91.5319,VALID,0,VALID,22.6225,VALID,25,VALID,0,
2009-01-26, 03:14:04,VALID,1009.25,VALID,0,VALID,91.5319,VALID,0,VALID,22.642,VALID,25,VALID,0,
2009-01-26, 03:15:04,VALID,1009.21,VALID,0,VALID,91.5472,VALID,0,VALID,22.642,VALID,25,VALID,0,
2009-01-26, 03:16:04,VALID,1009.22,VALID,0,VALID,91.5319,VALID,0,VALID,22.6013,VALID,25,VALID,0,
2009-01-26, 03:17:04,VALID,1009.22,VALID,0,VALID,91.5319,VALID,0,VALID,22.6013,VALID,25,VALID,0,
2009-01-26, 03:18:04,VALID,1009.2,VALID,0,VALID,91.5243,VALID,0,VALID,22.642,VALID,25,VALID,0,
2009-01-26, 03:19:04,VALID,1009.21,VALID,0,VALID,91.5395,VALID,0,VALID,22.642,VALID,25,VALID,0,
2009-01-26, 03:20:04,VALID,1009.18,VALID,0,VALID,91.5395,VALID,0,VALID,22.642,VALID,25,VALID,0,
2009-01-26, 03:21:04,VALID,1009.17,VALID,0,VALID,91.5319,VALID,0,VALID,22.642,VALID,25,VALID,0,
2009-01-26, 03:22:04,VALID,1009.16,VALID,0,VALID,91.5243,VALID,0,VALID,22.642,VALID,25,VALID,0,
2009-01-26, 03:23:04,VALID,1009.2,VALID,0,VALID,91.5014,VALID,0,VALID,22.642,VALID,25,VALID,0,
2009-01-26, 03:24:04,VALID,1009.19,VALID,0,VALID,91.5319,VALID,0,VALID,22.6632,VALID,25,VALID,0,
2009-01-26, 03:25:04,VALID,1009.2,VALID,0,VALID,91.5243,VALID,0,VALID,22.642,VALID,25,VALID,0,
2009-01-26, 03:26:04,VALID,1009.22,VALID,0,VALID,91.5014,VALID,0,VALID,22.6614,VALID,25,VALID,0,
2009-01-26, 03:27:04,VALID,1009.22,VALID,0,VALID,91.5167,VALID,0,VALID,22.6614,VALID,25,VALID,0,
2009-01-26, 03:28:04,VALID,1009.21,VALID,0,VALID,91.5014,VALID,0,VALID,22.6614,VALID,25,VALID,0,
2009-01-26, 03:29:04,VALID,1009.26,VALID,0,VALID,91.5167,VALID,0,VALID,22.6614,VALID,25,VALID,0,
2009-01-26, 03:30:04,VALID,1009.24,VALID,0,VALID,91.4938,VALID,0,VALID,22.6809,VALID,25,VALID,0,
2009-01-26, 03:31:04,VALID,1009.24,VALID,0,VALID,91.5014,VALID,0,VALID,22.7004,VALID,25,VALID,0,
2009-01-26, 03:32:04,VALID,1009.25,VALID,0,VALID,91.5014,VALID,0,VALID,22.7199,VALID,25,VALID,0,
2009-01-26, 03:33:04,VALID,1009.25,VALID,0,VALID,91.509,VALID,0,VALID,22.7199,VALID,39,VALID,0,
2009-01-26, 03:34:04,VALID,1009.27,VALID,0,VALID,91.509,VALID,0,VALID,22.7394,VALID,83,VALID,0,
2009-01-26, 03:35:04,VALID,1009.27,VALID,0,VALID,91.5243,VALID,0,VALID,22.7606,VALID,97,VALID,0,
2009-01-26, 03:36:04,VALID,1009.28,VALID,0,VALID,91.5167,VALID,0,VALID,22.7394,VALID,136,VALID,0,
2009-01-26, 03:37:04,VALID,1009.28,VALID,0,VALID,91.5319,VALID,0,VALID,22.7588,VALID,148,VALID,0,
2009-01-26, 03:38:04,VALID,1009.31,VALID,0,VALID,91.5243,VALID,0,VALID,22.7199,VALID,150,VALID,0,
2009-01-26, 03:39:04,VALID,1009.3,VALID,0,VALID,91.5319,VALID,0,VALID,22.7394,VALID,150,VALID,0,
2009-01-26, 03:40:04,VALID,1009.28,VALID,0,VALID,91.5395,VALID,0,VALID,22.7606,VALID,150,VALID,0,
2009-01-26, 03:41:04,VALID,1009.28,VALID,0,VALID,91.5014,VALID,0,VALID,22.7394,VALID,155,VALID,0,
2009-01-26, 03:42:04,VALID,1009.28,VALID,0,VALID,91.5167,VALID,0,VALID,22.7199,VALID,155,VALID,0,
2009-01-26, 03:43:04,VALID,1009.28,VALID,0,VALID,91.5319,VALID,0,VALID,22.7199,VALID,155,VALID,0,
2009-01-26, 03:44:04,VALID,1009.27,VALID,0,VALID,91.5167,VALID,0,VALID,22.7199,VALID,155,VALID,0,
2009-01-26, 03:45:04,VALID,1009.29,VALID,0,VALID,91.509,VALID,0,VALID,22.7004,VALID,155,VALID,0,
2009-01-26, 03:46:04,VALID,1009.28,VALID,0,VALID,91.5014,VALID,0,VALID,22.7004,VALID,149,VALID,0,
2009-01-26, 03:47:04,VALID,1009.32,VALID,0,VALID,91.5014,VALID,0,VALID,22.6809,VALID,147,VALID,0,
2009-01-26, 03:48:04,VALID,1009.3,VALID,0,VALID,91.448,VALID,0,VALID,22.6809,VALID,158,VALID,0,
2009-01-26, 03:49:04,VALID,1009.31,VALID,0,VALID,91.4404,VALID,0,VALID,22.6614,VALID,158,VALID,0,
2009-01-26, 03:50:04,VALID,1009.32,VALID,0,VALID,91.4633,VALID,0,VALID,22.6614,VALID,158,VALID,0,
2009-01-26, 03:51:04,VALID,1009.32,VALID,0,VALID,91.448,VALID,0,VALID,22.6614,VALID,158,VALID,0,
2009-01-26, 03:52:04,VALID,1009.34,VALID,0,VALID,91.4404,VALID,0,VALID,22.6809,VALID,158,VALID,0,
2009-01-26, 03:53:04,VALID,1009.36,VALID,0,VALID,91.4252,VALID,0,VALID,22.6402,VALID,158,VALID,0,
2009-01-26, 03:54:04,VALID,1009.41,VALID,0,VALID,91.4175,VALID,0,VALID,22.642,VALID,158,VALID,0,
2009-01-26, 03:55:04,VALID,1009.41,VALID,0,VALID,91.448,VALID,0,VALID,22.6614,VALID,159,VALID,0,
2009-01-26, 03:56:04,VALID,1009.43,VALID,0,VALID,91.4252,VALID,0,VALID,22.642,VALID,159,VALID,0,
2009-01-26, 03:57:04,VALID,1009.43,VALID,0,VALID,91.4099,VALID,0,VALID,22.6809,VALID,159,VALID,0,
2009-01-26, 03:58:04,VALID,1009.46,VALID,0,VALID,91.4252,VALID,0,VALID,22.6614,VALID,151,VALID,0,
2009-01-26, 03:59:04,VALID,1009.48,VALID,0,VALID,91.4175,VALID,0,VALID,22.6809,VALID,160,VALID,0,